When you browse on this site, cookies collect data to enhance your experience and personalize the content and advertising you see.
Visit our Privacy Policy to learn more. By continuing to use the site, you agree to this use of cookies and data.
  • In Hungary
  • List of Countries
  • For 7 days
  • Water Temperature
  • Satellite Maps
  • Weather Map
  • News
  • Weather Widgets
  • user-avatar
    Login

    Hourly Weather Bogdanowice

    Today, 19 December, Wednesday

    Time Temperature Precipitation Wind Pressure Humidity
    00:00 -2°C° 0 mm 2 mps 746 mmHg 91%
    01:00 -2°C° 0 mm 2 mps 746 mmHg 90%
    02:00 -3°C° 0 mm 2 mps 745 mmHg 90%
    03:00 -3°C° 0 mm 2 mps 745 mmHg 90%
    04:00 -4°C° 0 mm 3 mps 745 mmHg 89%
    05:00 -4°C° 0 mm 3 mps 745 mmHg 89%
    06:00 -4°C° 0 mm 3 mps 744 mmHg 88%
    07:00 -4°C° 0 mm 3 mps 744 mmHg 87%
    08:00 -2°C° 0 mm 3 mps 744 mmHg 84%
    09:00 -3°C° 0 mm 4 mps 744 mmHg 82%
    10:00 -2°C° 0 mm 4 mps 744 mmHg 79%
    11:00 -2°C° 0 mm 4 mps 744 mmHg 77%
    12:00 -1°C° 0 mm 4 mps 743 mmHg 75%
    13:00 -1°C° 0 mm 5 mps 743 mmHg 72%
    14:00 -1°C° 0 mm 4 mps 743 mmHg 74%
    15:00 -2°C° 0 mm 4 mps 742 mmHg 75%
    16:00 -3°C° 0 mm 4 mps 742 mmHg 76%
    17:00 -3°C° 0 mm 4 mps 742 mmHg 76%
    18:00 -3°C° 0 mm 4 mps 742 mmHg 77%
    19:00 -3°C° 0 mm 4 mps 742 mmHg 77%
    20:00 -3°C° 0 mm 4 mps 742 mmHg 77%
    21:00 -3°C° 0 mm 4 mps 742 mmHg 76%
    22:00 -3°C° 0 mm 4 mps 741 mmHg 76%
    23:00 -3°C° 0 mm 4 mps 741 mmHg 75%

    Tomorrow, 20 December, Thursday

    Time Temperature Precipitation Wind Pressure Humidity
    00:00 -3°C° 0 mm 4 mps 741 mmHg 74%
    01:00 -3°C° 0 mm 4 mps 741 mmHg 73%
    02:00 -3°C° 0 mm 4 mps 741 mmHg 73%
    03:00 -3°C° 0 mm 4 mps 741 mmHg 74%
    04:00 -3°C° 0 mm 4 mps 741 mmHg 75%
    05:00 -4°C° 0 mm 4 mps 741 mmHg 76%
    06:00 -4°C° 0 mm 4 mps 741 mmHg 77%
    07:00 -4°C° 0 mm 4 mps 741 mmHg 78%
    08:00 -4°C° 0 mm 4 mps 741 mmHg 77%
    09:00 -5°C° 0 mm 5 mps 741 mmHg 76%
    10:00 -5°C° 0 mm 5 mps 741 mmHg 76%
    11:00 -4°C° 0 mm 5 mps 741 mmHg 76%
    12:00 -4°C° 0 mm 5 mps 741 mmHg 76%
    13:00 -2°C° 0 mm 5 mps 741 mmHg 76%
    14:00 -2°C° 0 mm 4 mps 741 mmHg 79%
    15:00 -3°C° 0 mm 4 mps 741 mmHg 81%
    16:00 -3°C° 0 mm 4 mps 741 mmHg 83%
    17:00 -2°C° 0 mm 4 mps 741 mmHg 84%
    18:00 -2°C° 0 mm 4 mps 741 mmHg 85%
    19:00 -2°C° 0 mm 4 mps 741 mmHg 86%
    20:00 -2°C° 0 mm 4 mps 741 mmHg 87%
    21:00 -2°C° 0 mm 4 mps 741 mmHg 88%
    22:00 -2°C° 0 mm 4 mps 741 mmHg 89%
    23:00 -1°C° 0 mm 4 mps 741 mmHg 88%

    Day after tomorrow, 21 December, Friday

    Time Temperature Precipitation Wind Pressure Humidity
    00:00 -1°C° 0 mm 5 mps 741 mmHg 88%
    01:00 -1°C° 0 mm 5 mps 741 mmHg 88%
    02:00 -1°C° 0 mm 5 mps 741 mmHg 88%
    03:00 -1°C° 0 mm 5 mps 741 mmHg 88%
    04:00 -1°C° 0 mm 5 mps 741 mmHg 89%
    05:00 -1°C° 0.1 mm 5 mps 740 mmHg 88%
    06:00 -1°C° 0.1 mm 5 mps 740 mmHg 88%
    07:00 -1°C° 0.1 mm 5 mps 740 mmHg 88%
    08:00 -1°C° 0.1 mm 5 mps 740 mmHg 86%
    09:00 0°C° 0.1 mm 5 mps 739 mmHg 85%
    10:00 0°C° 0.1 mm 5 mps 739 mmHg 84%
    11:00 0°C° 0.1 mm 5 mps 738 mmHg 83%
    12:00 +1°C° 0.1 mm 5 mps 738 mmHg 82%
    13:00 +1°C° 0.1 mm 5 mps 737 mmHg 82%
    14:00 +1°C° 0.4 mm 5 mps 736 mmHg 83%
    15:00 +1°C° 0.4 mm 5 mps 736 mmHg 84%
    16:00 -1°C° 0.4 mm 6 mps 735 mmHg 85%
    17:00 +1°C° 0.9 mm 6 mps 734 mmHg 84%
    18:00 0°C° 0.9 mm 7 mps 734 mmHg 84%
    19:00 0°C° 0.9 mm 8 mps 733 mmHg 84%
    20:00 +1°C° 0.5 mm 8 mps 733 mmHg 85%
    21:00 +1°C° 0.5 mm 8 mps 733 mmHg 86%
    22:00 +3°C° 0.5 mm 7 mps 732 mmHg 87%
    23:00 +3°C° 0.2 mm 7 mps 732 mmHg 87%

    22 December, Saturday

    Time Temperature Precipitation Wind Pressure Humidity
    00:00 +3°C° 0.2 mm 6 mps 733 mmHg 88%
    01:00 +3°C° 0.2 mm 6 mps 733 mmHg 89%
    02:00 +3°C° 0 mm 6 mps 733 mmHg 88%
    03:00 +3°C° 0 mm 5 mps 733 mmHg 87%
    04:00 +2°C° 0 mm 5 mps 733 mmHg 86%
    05:00 +2°C° 0 mm 5 mps 733 mmHg 87%
    06:00 +3°C° 0 mm 4 mps 733 mmHg 88%
    07:00 +3°C° 0 mm 4 mps 732 mmHg 88%
    08:00 +4°C° 0.5 mm 4 mps 732 mmHg 90%
    09:00 +4°C° 0.5 mm 4 mps 732 mmHg 91%
    10:00 +3°C° 0.5 mm 5 mps 732 mmHg 92%
    11:00 +5°C° 0.5 mm 5 mps 731 mmHg 90%
    12:00 +5°C° 0.5 mm 5 mps 730 mmHg 89%
    13:00 +4°C° 0.5 mm 6 mps 730 mmHg 88%
    14:00 +5°C° 0.2 mm 7 mps 730 mmHg 85%
    15:00 +5°C° 0.2 mm 8 mps 730 mmHg 82%
    16:00 +6°C° 0.2 mm 9 mps 731 mmHg 79%
    17:00 +5°C° 0 mm 7 mps 731 mmHg 81%
    18:00 +4°C° 0 mm 6 mps 732 mmHg 83%
    19:00 +5°C° 0 mm 5 mps 733 mmHg 85%
    20:00 +5°C° 0 mm 5 mps 733 mmHg 84%
    21:00 +5°C° 0 mm 5 mps 734 mmHg 84%
    22:00 +3°C° 0 mm 5 mps 734 mmHg 84%
    23:00 +3°C° 0.1 mm 6 mps 734 mmHg 82%

    23 December, Sunday

    Time Temperature Precipitation Wind Pressure Humidity
    00:00 +3°C° 0.1 mm 6 mps 734 mmHg 81%
    01:00 +3°C° 0.1 mm 6 mps 734 mmHg 80%
    02:00 +3°C° 0.3 mm 6 mps 735 mmHg 80%
    03:00 +3°C° 0.3 mm 7 mps 735 mmHg 80%
    04:00 +3°C° 0.3 mm 7 mps 736 mmHg 81%
    05:00 +3°C° 0.1 mm 6 mps 736 mmHg 82%
    06:00 +3°C° 0.1 mm 5 mps 737 mmHg 83%
    07:00 +2°C° 0.1 mm 5 mps 737 mmHg 84%
    08:00 +2°C° 0 mm 5 mps 738 mmHg 83%
    09:00 +3°C° 0 mm 5 mps 738 mmHg 82%
    10:00 +3°C° 0 mm 5 mps 738 mmHg 81%
    11:00 +3°C° 0 mm 5 mps 739 mmHg 79%
    12:00 +3°C° 0 mm 5 mps 739 mmHg 78%
    13:00 +5°C° 0 mm 5 mps 739 mmHg 76%
    14:00 +3°C° 0.1 mm 5 mps 739 mmHg 78%
    15:00 +4°C° 0.1 mm 4 mps 739 mmHg 80%
    16:00 +3°C° 0.1 mm 4 mps 739 mmHg 82%
    17:00 +3°C° 0.1 mm 4 mps 739 mmHg 82%
    18:00 +3°C° 0.1 mm 4 mps 739 mmHg 82%
    19:00 +2°C° 0.1 mm 5 mps 740 mmHg 82%
    20:00 +2°C° 0.1 mm 5 mps 740 mmHg 82%
    21:00 +2°C° 0.1 mm 5 mps 740 mmHg 82%
    22:00 +2°C° 0.1 mm 5 mps 740 mmHg 82%
    23:00 +2°C° 0.1 mm 5 mps 740 mmHg 82%

    24 December, Monday

    Time Temperature Precipitation Wind Pressure Humidity
    00:00 +2°C° 0.1 mm 5 mps 740 mmHg 83%
    01:00 +2°C° 0.1 mm 5 mps 741 mmHg 83%
    02:00 +1°C° 0.1 mm 5 mps 741 mmHg 84%
    03:00 +1°C° 0.1 mm 5 mps 741 mmHg 85%
    04:00 +1°C° 0.1 mm 4 mps 742 mmHg 86%
    05:00 +2°C° 0.1 mm 3 mps 742 mmHg 88%
    06:00 +1°C° 0.1 mm 3 mps 742 mmHg 89%
    07:00 +2°C° 0.1 mm 2 mps 743 mmHg 91%
    08:00 +2°C° 0.2 mm 2 mps 743 mmHg 90%
    09:00 +3°C° 0.2 mm 2 mps 744 mmHg 89%
    10:00 +3°C° 0.2 mm 2 mps 744 mmHg 88%
    11:00 +3°C° 0.2 mm 2 mps 744 mmHg 86%
    12:00 +3°C° 0.2 mm 3 mps 744 mmHg 84%
    13:00 +3°C° 0.2 mm 3 mps 744 mmHg 82%
    14:00 +3°C° 0.2 mm 3 mps 745 mmHg 84%
    15:00 +2°C° 0.2 mm 3 mps 745 mmHg 86%
    16:00 +3°C° 0.2 mm 2 mps 745 mmHg 87%
    17:00 +3°C° 0.1 mm 2 mps 745 mmHg 88%
    18:00 +2°C° 0.1 mm 2 mps 745 mmHg 89%
    19:00 +2°C° 0.1 mm 2 mps 746 mmHg 90%
    20:00 +2°C° 0.1 mm 2 mps 746 mmHg 90%
    21:00 +2°C° 0.1 mm 2 mps 746 mmHg 89%
    22:00 +2°C° 0.1 mm 2 mps 746 mmHg 89%
    23:00 +2°C° 0 mm 2 mps 746 mmHg 89%
    Show more